User: anonymous   Login
Location: Brookfield Center
(41.2406°N, 80.5579°W)
Time: 12:33:15
(UTC+00:00)
Language:

Cosmos 1932 - Orbit

View from above orbital plane
View from above orbital plane
View from above satellite
View from above satellite

Ground track
Ground track

The orbit data is extracted from the following two-line orbital elements,

1 18957U 88019A   20094.99748062 -.00000099  00000-0 -11425-4 0  9993
2 18957  65.0444 187.8519 0060567 275.7806  83.6350 13.79683036616636
Epoch (UTC): 03 April 2020 23:56:22
Eccentricity: 0.0060567
inclination: 65.0444°
perigee height: 920 km
apogee height: 1009 km
right ascension of ascending node: 187.8519°
argument of perigee: 275.7806°
revolutions per day: 13.79683036
mean anomaly at epoch: 83.6350°
orbit number at epoch: 61663

The dashed part of the orbit path shows where the satellite is in the earth's shadow,  

DLR